Weather History for Detroit Metro, MI

Change the Weather History Date:

Wednesday, June 26, 2013

  Actual Average Record
Temperature  
Mean Temperature 76 °F 72 °F  
Max Temperature 83 °F 82 °F 100 °F (1952)
Min Temperature 68 °F 62 °F 44 °F (1979)
Degree Days  
Heating Degree Days 0 0  
Month to date heating degree days 23 34  
Since 1 June heating degree days 23 34  
Since 1 July heating degree days 5929 6136  
Cooling Degree Days 11 8  
Month to date cooling degree days 139 135  
Year to date cooling degree days 242 183  
Since 1 June cooling degree days 139 135  
Growing Degree Days 25 (Base 50)    
Moisture  
Dew Point 68 °F    
Average Humidity 79    
Maximum Humidity 93    
Minimum Humidity 65    
Precipitation  
Precipitation 0.12 in 0.11 in 2.10 in (1909)
Month to date precipitation 4.11 3.08  
Year to date precipitation 18.96 15.62  
Snow  
Snow 0.00 in 0.00 in 0.00 in ()
Month to date snowfall 0.0 0.0  
Since 1 June snowfall 0.0 0.0  
Since 1 July snowfall 47.7 42.5  
Snow Depth 0.00 in    
Sea Level Pressure  
Sea Level Pressure 29.83 in    
Wind  
Wind Speed 6 mph (SSW)    
Max Wind Speed 16 mph    
Max Gust Speed 21 mph    
Visibility 10 miles    
Events Rain , Thunderstorm    
T = Trace of Precipitation, MM = Missing Value Source: NWS Daily Summary

Daily Weather History Graph

Daily Weather History Graph

Search for Another Location

Airport:

Trip Planner

Search our weather history database for the weather conditions in past years. The results will help you decide how hot, cold, wet, or windy it might be!

Date:

Astronomy

Jun. 26, 2013 Rise Set
Actual Time 5:58 AM EDT 9:13 PM EDT
Civil Twilight 5:23 AM EDT 9:48 PM EDT
Nautical Twilight 4:39 AM EDT 10:33 PM EDT
Astronomical Twilight 3:44 AM EDT 11:27 PM EDT
Moon 11:31 PM EDT (6/26) 9:53 AM EDT (6/26)
Length of Visible Light 16h 24m
Length of Day
15h 15m
Waning Gibbous, 85% of the Moon is Illuminated
Jun 26
Waning Gibbous
Jun 30
Last Quarter
Jul 8
New
Jul 15
First Quarter
Jul 22
Full

Hourly Weather History & Observations

Time (EDT) Temp. Heat Index Dew Point Humidity Pressure Visibility Wind Dir Wind Speed Gust Speed Precip Events Conditions
12:24 AM 73.4 °F - 69.8 °F 88% 29.93 in 4.0 mi WSW 11.5 mph 21.9 mph 0.09 in Rain , Thunderstorm Thunderstorms and Rain
12:53 AM 70.0 °F - 66.0 °F 87% 29.90 in 7.0 mi SSW 15.0 mph - 0.15 in Rain , Thunderstorm Thunderstorms and Rain
1:09 AM 69.8 °F - 66.2 °F 88% 29.90 in 8.0 mi SW 15.0 mph - 0.01 in Rain Light Rain
1:53 AM 69.1 °F - 64.9 °F 87% 29.85 in 8.0 mi WSW 9.2 mph - 0.02 in Rain Light Rain
2:53 AM 69.1 °F - 64.9 °F 87% 29.82 in 10.0 mi NW 4.6 mph - 0.00 in   Overcast
3:53 AM 69.1 °F - 66.0 °F 90% 29.83 in 10.0 mi Calm Calm - N/A   Overcast
4:53 AM 68.0 °F - 66.0 °F 93% 29.84 in 10.0 mi Calm Calm - N/A   Overcast
5:53 AM 68.0 °F - 64.9 °F 90% 29.84 in 10.0 mi SE 3.5 mph - N/A   Overcast
6:53 AM 69.1 °F - 66.0 °F 90% 29.86 in 10.0 mi South 3.5 mph - N/A   Overcast
7:53 AM 70.0 °F - 66.0 °F 87% 29.86 in 10.0 mi South 5.8 mph - N/A   Mostly Cloudy
8:53 AM 72.0 °F - 66.0 °F 81% 29.87 in 10.0 mi South 10.4 mph - N/A   Mostly Cloudy
9:51 AM 73.4 °F - 66.2 °F 78% 29.89 in 10.0 mi SW 9.2 mph - N/A   Mostly Cloudy
9:53 AM 73.9 °F - 66.0 °F 76% 29.88 in 10.0 mi SW 13.8 mph - N/A   Mostly Cloudy
10:53 AM 75.0 °F - 66.9 °F 76% 29.86 in 10.0 mi SW 8.1 mph - N/A   Mostly Cloudy
11:50 AM 75.2 °F - 66.2 °F 73% 29.88 in 10.0 mi SW 8.1 mph - N/A   Mostly Cloudy
11:53 AM 77.0 °F - 66.9 °F 71% 29.87 in 10.0 mi SW 10.4 mph - N/A   Mostly Cloudy
12:27 PM 78.8 °F - 66.2 °F 65% 29.89 in 10.0 mi WSW 8.1 mph - N/A   Mostly Cloudy
12:53 PM 79.0 °F - 68.0 °F 69% 29.87 in 10.0 mi SW 12.7 mph - N/A   Mostly Cloudy
1:10 PM 80.6 °F 83.2 °F 68.0 °F 65% 29.87 in 10.0 mi WSW 11.5 mph - N/A   Mostly Cloudy
1:53 PM 78.1 °F - 68.0 °F 71% 29.84 in 10.0 mi WSW 6.9 mph - N/A   Mostly Cloudy
2:53 PM 79.0 °F - 68.0 °F 69% 29.83 in 10.0 mi Calm Calm - N/A   Mostly Cloudy
3:53 PM 81.0 °F 83.8 °F 68.0 °F 65% 29.82 in 10.0 mi South 10.4 mph - N/A   Mostly Cloudy
4:53 PM 82.9 °F 86.5 °F 69.1 °F 63% 29.80 in 10.0 mi SE 6.9 mph - N/A   Mostly Cloudy
5:14 PM 82.4 °F 86.3 °F 69.8 °F 66% 29.82 in 10.0 mi SSE 10.4 mph - N/A   Mostly Cloudy
5:37 PM 80.6 °F 83.9 °F 69.8 °F 70% 29.81 in 10.0 mi SSE 10.4 mph - N/A   Mostly Cloudy
5:53 PM 81.0 °F 84.4 °F 70.0 °F 69% 29.79 in 10.0 mi SE 10.4 mph - N/A   Mostly Cloudy
6:53 PM 81.0 °F 84.1 °F 69.1 °F 67% 29.77 in 10.0 mi ESE 5.8 mph - N/A   Mostly Cloudy
7:53 PM 80.1 °F 82.9 °F 69.1 °F 69% 29.77 in 10.0 mi South 4.6 mph - N/A   Mostly Cloudy
8:53 PM 78.1 °F - 68.0 °F 71% 29.77 in 10.0 mi SE 6.9 mph - N/A   Mostly Cloudy
9:36 PM 77.0 °F - 68.0 °F 74% 29.78 in 10.0 mi Calm Calm - N/A Thunderstorm Thunderstorm
9:53 PM 77.0 °F - 68.0 °F 74% 29.78 in 10.0 mi South 9.2 mph - 0.00 in Rain , Thunderstorm Light Thunderstorms and Rain
10:37 PM 73.4 °F - 69.8 °F 88% 29.78 in 8.0 mi SW 5.8 mph - 0.08 in Rain Light Rain
10:53 PM 73.0 °F - 70.0 °F 90% 29.77 in 10.0 mi WNW 4.6 mph - 0.10 in Rain Light Rain
11:31 PM 73.4 °F - 69.8 °F 88% 29.77 in 10.0 mi NE 5.8 mph - 0.00 in   Overcast
11:53 PM 73.0 °F - 71.1 °F 93% 29.76 in 8.0 mi NNE 5.8 mph - 0.00 in   Overcast